User: anonymous   Login
Location: Maiden
(35.5760°N, 81.2120°W)
Time: 06:21:04
(UTC-05:00)
Language:

Cosmos 1953 - Orbit

View from above orbital plane
View from above orbital plane
View from above satellite
View from above satellite

Ground track
Ground track

The orbit data is extracted from the following two-line orbital elements,

1 19210U 88050A   18319.33152204 -.00000037 +00000-0 -45972-5 0  9990
2 19210 082.5177 252.7763 0011699 303.2373 056.7732 15.05663257634366
Epoch (UTC): 15 November 2018 07:57:23
Eccentricity: 0.0011699
inclination: 82.5177°
perigee height: 541 km
apogee height: 557 km
right ascension of ascending node: 252.7763°
argument of perigee: 303.2373°
revolutions per day: 15.05663257
mean anomaly at epoch: 56.7732°
orbit number at epoch: 63436

The dashed part of the orbit path shows where the satellite is in the earth's shadow,  

DLR